Flag for Germany Weather past 2 weeks in Offenburg, Baden-Württemberg, Germany

Now
63 °F

Partly sunny.


Feels Like: 63 °F
Forecast: 53 / 74 °F
Wind: 5 mph from North

Location: Lahr - CAN-AFB

Current Time: Aug 27, 2014 at 9:30:44 PM

Latest Report: Aug 27, 2014 at 7:50 PM


Visibility: N/A

Pressure: 30.04 "Hg

Humidity: 88%

Dew point: 59 °F

Location of OffenburgLocation

Historic Weather in Offenburg — Graph

°F

Offenburg temperature yesterday

Maximum temperature yesterday: 72 °F (at 3:50 PM)
Minimum temperature yesterday: 59 °F (at 7:20 AM)
Average temperature yesterday: 65 °F

Past Weeks' High & Low Weather Summary

 TemperatureHumidityPressure
High72 °F (Aug 12, 7:20 PM)100% (Aug 26, 6:20 PM)30.18 "Hg (Aug 26, 6:20 PM)
Low50 °F (Aug 21, 7:20 AM)40% (Aug 19, 5:20 PM)29.65 "Hg (Aug 13, 3:20 PM)
Average63 °F69%29.94 "Hg
* Reported Aug 12 7:20 PM — Aug 27 7:50 PM, Offenburg, Weather by CustomWeather, © 2014

Note: Actual official high and low records may vary slightly from our data, if they occured in-between our weather recording intervals... More about our weather records

Advertising

Offenburg weather history for previous 24 hours

 ConditionsComfort  
Time TempWeatherWind HumidityBarometerVisibility
7:50 PM
Aug 27
63 °FPartly sunny.5 mph88%30.04 "HgN/A
7:20 PM63 °FPartly sunny.2 mph88%30.04 "HgN/A
6:50 PM64 °FScattered clouds.1 mph83%30.04 "HgN/A
6:20 PM64 °FScattered clouds.1 mph78%30.04 "HgN/A
5:50 PM64 °FScattered clouds.1 mph83%30.04 "HgN/A
4:20 PM64 °FScattered clouds.2 mph83%30.04 "HgN/A
3:50 PM64 °FPartly sunny.2 mph78%30.04 "HgN/A
3:20 PM64 °FSprinkles. Scattered clouds.3 mph78%30.04 "HgN/A
2:50 PM64 °FRain showers. Broken clouds.3 mph78%30.04 "HgN/A
2:20 PM63 °FBroken clouds.6 mph94%30.04 "HgN/A
1:50 PM61 °FRain showers. Broken clouds.2 mph94%30.04 "HgN/A
1:20 PM64 °FBroken clouds.2 mph83%30.01 "HgN/A
12:50 PM63 °FBroken clouds.5 mph88%30.01 "HgN/A
12:20 PM61 °FLight rain. Broken clouds.3 mph94%30.01 "HgN/A
11:50 AM61 °FLight rain. Broken clouds.3 mph94%30.01 "Hg3 mi
11:20 AM59 °FRain. Broken clouds.5 mph94%30.01 "Hg2 mi
10:50 AM61 °FRain. Broken clouds.5 mph88%30.01 "Hg4 mi
10:20 AM63 °FBroken clouds.5 mph88%29.98 "HgN/A
9:50 AM61 °FLight rain. Broken clouds.5 mph94%29.98 "Hg6 mi
8:50 AM61 °FBroken clouds.3 mph94%29.95 "Hg5 mi
8:20 AM61 °FLight rain. Broken clouds.5 mph94%29.95 "Hg3 mi
7:50 AM61 °FRain. Broken clouds.3 mph94%29.92 "Hg2 mi
Weather by CustomWeather, © 2014

See weather overviewHow to use our weather pages